Location: Boston
(42.3580°N, 71.0600°W)
Time: 04:26:22
(UTC-05:00)

Tiangong 2 - Pass Details

Date: 10 October 2017
Orbit: 386 x 390 km, 42.8° (Epoch: 12 December)

Event Time Altitude Azimuth Distance (km) Brightness Sun altitude
Exits shadow 05:37:16 25° 226° (SW) 843 2.3 -14.5°
Maximum altitude 05:38:51 50° 161° (SSE) 504 1.7 -14.2°
Drops below altitude 10° 05:41:59 10° 84° (E) 1,425 5.4 -13.7°
Sets 05:44:06 0° 79° (E) 2,283 6.9 -13.3°
